Orbital Elements at Epoch 2459000.5 (2020-May-31.0) TDB
Reference: JPL 17 (heliocentric ecliptic J2000)
Element | Value | Uncertainty (1-sigma) | Units |
e | .2186589782800243 | 4.7015e-08 | |
a | 2.233314229042859 | 6.679e-09 | au |
q | 1.744980021542108 | 1.0446e-07 | au |
i | 5.634278589145319 | 5.4636e-06 | deg |
node | 163.76605109012 | 3.7875e-05 | deg |
peri | 204.0905648194515 | 4.0254e-05 | deg |
M | 131.5009521086322 | 1.28e-05 | deg |
tp | 2458555.203201462727 (2019-Mar-12.70320146) | 4.2448e-05 | TDB |
period | 1219.054652478787 3.34 | 5.4686e-06 1.497e-08 | d yr |
n | .2953107961714328 | 1.3247e-09 | deg/d |
Q | 2.721648436543611 | 8.1394e-09 | au |
|
| | Orbit Determination Parameters
Additional Information
|